DW6083 Weather Reports


Display with metric or nautical units.
time (UTC)temp
F
wind
direction
speed
MPH
gust
MPH
rain 1hr
in
rain 24hr
in
rain mn
in
humidity
%
barometer
mb
20260508193002 74 202 0.0 0.0 0.00 0.00 0.00 50 1014.1
20260508191558 74 203 0.0 0.0 0.00 0.00 0.00 48 1014.4
20260508190053 73 204 0.0 5.0 0.00 0.00 0.00 48 1014.6
20260508184549 73 204 2.0 7.0 0.00 0.00 0.00 50 1014.9
20260508183100 73 135 2.0 7.0 0.00 0.00 0.00 51 1015.1
20260508181550 73 155 5.0 8.0 0.00 0.00 0.00 49 1015.3
20260508180036 72 275 0.0 6.0 0.00 0.00 0.00 55 1015.2
20260508174531 71 174 3.0 8.0 0.00 0.00 0.00 54 1015.5
20260508173028 71 159 4.0 7.0 0.00 0.00 0.00 53 1016.0
20260508171532 71 123 1.0 4.0 0.00 0.00 0.00 55 1015.8
20260508170018 71 144 4.0 9.0 0.00 0.00 0.00 54 1016.3
20260508164516 70 150 3.0 10.0 0.00 0.00 0.00 56 1016.8
20260508163009 69 93 1.0 8.0 0.00 0.00 0.00 54 1016.8
20260508161509 69 150 3.0 7.0 0.00 0.00 0.00 57 1017.2
20260508160001 68 153 0.0 7.0 0.00 0.00 0.00 55 1017.1
20260508154557 69 148 2.0 10.0 0.00 0.00 0.00 56 1017.4
20260508153052 68 121 2.0 7.0 0.00 0.00 0.00 57 1017.6
20260508151549 67 115 3.0 8.0 0.00 0.00 0.00 56 1017.7
20260508150100 67 128 0.0 5.0 0.00 0.00 0.00 54 1017.4
20260508144545 66 135 1.0 8.0 0.00 0.00 0.00 54 1017.4
20260508143041 65 105 2.0 6.0 0.00 0.00 0.00 50 1017.6
20260508141529 64 148 3.0 6.0 0.00 0.00 0.00 42 1017.8
20260508140034 62 102 2.0 8.0 0.00 0.00 0.00 22 1017.8
20260508134519 59 111 4.0 9.0 0.00 0.00 0.00 1 1017.7
20260508133015 57 98 2.0 7.0 0.00 0.00 0.00 1 1017.6
20260508131511 58 15 0.0 5.0 0.00 0.00 0.00 1 1017.5
20260508130007 57 9 0.0 7.0 0.00 0.00 0.00 1 1017.3
20260508124501 56 309 0.0 0.0 0.00 0.00 0.00 1 1017.1
20260508123058 54 223 0.0 0.0 0.00 0.00 0.00 1 1016.9
20260508121553 52 228 0.0 0.0 0.00 0.00 0.00 1 1016.7
20260508120048 50 281 0.0 0.0 0.00 0.00 0.00 1 1016.6
20260508114543 49 272 0.0 0.0 0.00 0.00 0.00 1 1016.4
20260508113103 49 272 0.0 0.0 0.00 0.00 0.00 1 1016.2
20260508111534 49 272 0.0 0.0 0.00 0.00 0.00 1 1015.6
20260508110029 0 272 0.0 0.0 0.00 0.00 0.00 1015.3
20260508104525 0 272 0.0 0.0 0.00 0.00 0.00 1015.3
20260508103018 0 272 0.0 0.0 0.00 0.00 0.00 1014.9
20260508101514 0 272 0.0 0.0 0.00 0.00 0.00 1014.7
20260508100009 0 272 0.0 0.0 0.00 0.00 0.00 1014.5
20260508094505 0 272 0.0 0.0 0.00 0.00 0.00 1014.3
20260508093101 0 272 0.0 0.0 0.00 0.00 0.00 1014.2
20260508091555 0 272 0.0 0.0 0.00 0.00 0.00 1014.1
20260508090051 0 272 0.0 0.0 0.00 0.00 0.00 1013.9
20260508084546 0 272 0.0 0.0 0.00 0.00 0.00 1013.9
20260508083043 0 272 0.0 0.0 0.00 0.00 0.00 1014.0
20260508081540 0 272 0.0 0.0 0.00 0.00 0.00 1013.9
20260508080033 0 272 0.0 0.0 0.00 0.00 0.00 1013.8
20260508074529 0 272 0.0 0.0 0.00 0.00 0.00 1013.6
20260508073024 0 272 0.0 0.0 0.00 0.00 0.00 1013.6
20260508071520 0 272 0.0 0.0 0.00 0.00 0.00 1013.7
20260508070015 0 272 0.0 0.0 0.00 0.00 0.00 1013.6
20260508064537 0 272 0.0 0.0 0.00 0.00 0.00 1013.5
20260508063006 0 272 0.0 0.0 0.00 0.00 0.00 1013.4
20260508061504 0 272 0.0 0.0 0.00 0.00 0.00 1013.4
20260508060100 0 272 0.0 0.0 0.00 0.00 0.00 1013.3
20260508054620 0 272 0.0 0.0 0.00 0.00 0.00 1013.4
20260508053049 0 272 0.0 0.0 0.00 0.00 0.00 1013.4
20260508051546 0 272 0.0 0.0 0.00 0.00 0.00 1013.5
20260508050038 0 272 0.0 0.0 0.00 0.00 0.00 1013.4
20260508044531 0 272 0.0 0.0 0.00 0.00 0.00 1013.2
20260508043020 0 272 0.0 3.0 0.00 0.00 0.00 1013.2
20260508041514 0 271 1.0 3.0 0.00 0.00 0.00 1012.9
20260508040010 0 270 0.0 3.0 0.00 0.00 0.00 1012.8
20260508034516 0 270 0.0 2.0 0.00 0.00 0.00 1012.9
20260508033003 0 269 0.0 3.0 0.00 0.00 0.00 1013.0
20260508031605 0 269 0.0 4.0 0.00 0.00 0.00 1012.9
20260508030103 0 269 0.0 4.0 0.00 0.00 0.00 1012.6
20260508024548 0 268 1.0 3.0 0.00 0.00 0.00 1012.5
20260508023042 0 290 2.0 7.0 0.00 0.00 0.00 1012.2
20260508021541 0 246 2.0 6.0 0.00 0.00 0.00 1011.9
20260508020034 0 294 3.0 9.0 0.00 0.00 0.00 1011.8
20260508014531 0 314 3.0 10.0 0.00 0.00 0.00 1011.4
20260508013026 0 348 0.0 6.0 0.00 0.00 0.00 1011.1
20260508011523 0 347 2.0 8.0 0.00 0.00 0.00 1010.8
20260508010025 0 221 2.0 11.0 0.00 0.00 0.00 1010.2
20260508004520 70 247 1.0 9.0 0.00 0.00 0.00 30 1010.1
20260508003006 71 272 2.0 8.0 0.00 0.00 0.00 36 1009.7
20260508001502 72 257 1.0 8.0 0.00 0.00 0.00 40 1009.4
20260508000120 72 315 1.0 8.0 0.00 0.00 0.00 44 1009.3
20260507234554 73 257 2.0 9.0 0.00 0.00 0.00 48 1009.0
20260507233049 74 248 4.0 14.0 0.00 0.00 0.00 50 1008.7
20260507231546 74 246 2.0 9.0 0.00 0.00 0.00 51 1008.5
20260507230039 75 223 4.0 11.0 0.00 0.00 0.00 54 1008.6
20260507224535 75 267 5.0 17.0 0.00 0.00 0.00 55 1008.4
20260507223030 76 210 5.0 17.0 0.00 0.00 0.00 54 1008.3
20260507221526 77 236 6.0 15.0 0.00 0.00 0.00 55 1008.2
20260507220021 78 209 6.0 14.0 0.00 0.00 0.00 53 1008.2
20260507214524 78 231 6.0 13.0 0.00 0.00 0.00 53 1008.1
20260507213011 78 205 6.0 16.0 0.00 0.00 0.00 50 1007.8
20260507211508 78 263 7.0 16.0 0.00 0.00 0.00 49 1007.7
20260507210006 79 324 4.0 14.0 0.00 0.00 0.00 45 1007.8
20260507204559 79 265 3.0 11.0 0.00 0.00 0.00 31 1007.7
20260507203055 78 221 4.0 11.0 0.00 0.00 0.00 39 1008.1
20260507201552 78 236 4.0 12.0 0.00 0.00 0.00 36 1007.9
20260507200045 77 179 4.0 7.0 0.00 0.00 0.00 24 1008.1
20260507194541 77 284 0.0 0.0 0.00 0.00 0.00 24 1008.7